{"data":{"norad_id":51642,"intl_designator":"2022-012W","name":"ONEWEB-0449","alt_names":[],"object_type":"PAYLOAD","status":"ACTIVE","operator":null,"country":"UK","launch_date":"2022-02-10","launch_site_code":"FRGUI","launch_vehicle":null,"mission":null,"orbit_class":"UNKNOWN","rcs_meters":null,"size_class":null,"mass_kg":null,"dimensions":null,"purposes":["comms"],"wikipedia_slug":null,"has_3d_model":false,"image_url":null,"decayed_at":null,"tle_current":{"epoch":"2026-09-20T00:24:57.107232Z","epoch_age_seconds":68843,"freshness":"FRESH","line1":"1 51642U 22012W   26263.01732763  .00000121  00000+0  31015-3 0  9999","line2":"2 51642  87.8901  17.3904 0001994 115.0087 245.1247 13.10368696221724","mean_motion":13.10368696,"eccentricity":0.0001994,"inclination_deg":87.8901,"raan_deg":17.3904,"arg_perigee_deg":115.0087,"mean_anomaly_deg":245.1247,"bstar":0.00031015,"rev_number":22172,"period_min":109.89273510545,"perigee_km":1220.2176706114,"apogee_km":1223.2484988012,"semimajor_km":7599.8700847063,"source":"CELESTRAK","updated_at":"2026-09-20T09:00:44.711947Z"}}}